When you browse on this site, cookies collect data to enhance your experience and personalize the content and advertising you see.
Visit our Privacy Policy to learn more. By continuing to use the site, you agree to this use of cookies and data.
  • In Lithuania
  • List of Countries
  • For 7 days
  • Water Temperature
  • Satellite Maps
  • Weather Map
  • Weather Widgets
  • user-avatar
    Login

    Hourly Weather Kordy

    Today, 22 April, Monday

    Time Temperature Precipitation Wind Pressure Humidity
    00:00 +7°C° 0.2 mm 2 mps 751 mmHg 90%
    01:00 +7°C° 0.2 mm 3 mps 751 mmHg 91%
    02:00 +7°C° 0.2 mm 3 mps 752 mmHg 92%
    03:00 +5°C° 0 mm 4 mps 752 mmHg 93%
    04:00 +5°C° 0 mm 4 mps 752 mmHg 94%
    05:00 +5°C° 0 mm 4 mps 753 mmHg 96%
    06:00 +6°C° 0 mm 5 mps 753 mmHg 90%
    07:00 +7°C° 0 mm 6 mps 754 mmHg 83%
    08:00 +9°C° 0 mm 6 mps 754 mmHg 77%
    09:00 +10°C° 0 mm 7 mps 755 mmHg 68%
    10:00 +12°C° 0 mm 7 mps 755 mmHg 58%
    11:00 +15°C° 0 mm 7 mps 755 mmHg 48%
    12:00 +15°C° 0 mm 7 mps 756 mmHg 46%
    13:00 +15°C° 0 mm 7 mps 756 mmHg 44%
    14:00 +16°C° 0 mm 7 mps 756 mmHg 42%
    15:00 +15°C° 0 mm 6 mps 756 mmHg 42%
    16:00 +15°C° 0 mm 6 mps 756 mmHg 42%
    17:00 +14°C° 0 mm 6 mps 756 mmHg 43%
    18:00 +13°C° 0 mm 5 mps 756 mmHg 46%
    19:00 +12°C° 0 mm 4 mps 756 mmHg 48%
    20:00 +11°C° 0 mm 4 mps 757 mmHg 51%
    21:00 +10°C° 0 mm 4 mps 757 mmHg 53%
    22:00 +8°C° 0 mm 4 mps 757 mmHg 54%
    23:00 +8°C° 0 mm 4 mps 757 mmHg 55%

    Tomorrow, 23 April, Tuesday

    Time Temperature Precipitation Wind Pressure Humidity
    00:00 +7°C° 0 mm 4 mps 757 mmHg 57%
    01:00 +7°C° 0 mm 4 mps 757 mmHg 59%
    02:00 +6°C° 0 mm 4 mps 758 mmHg 61%
    03:00 +6°C° 0 mm 4 mps 758 mmHg 63%
    04:00 +6°C° 0 mm 4 mps 757 mmHg 64%
    05:00 +6°C° 0 mm 5 mps 757 mmHg 66%
    06:00 +7°C° 0 mm 5 mps 758 mmHg 62%
    07:00 +8°C° 0 mm 6 mps 758 mmHg 58%
    08:00 +10°C° 0 mm 7 mps 758 mmHg 54%
    09:00 +11°C° 0 mm 7 mps 758 mmHg 50%
    10:00 +12°C° 0 mm 8 mps 758 mmHg 45%
    11:00 +15°C° 0 mm 8 mps 758 mmHg 41%
    12:00 +15°C° 0 mm 9 mps 757 mmHg 40%
    13:00 +16°C° 0 mm 9 mps 757 mmHg 39%
    14:00 +17°C° 0 mm 9 mps 757 mmHg 38%
    15:00 +16°C° 0 mm 8 mps 756 mmHg 40%
    16:00 +16°C° 0 mm 8 mps 756 mmHg 42%
    17:00 +16°C° 0 mm 8 mps 756 mmHg 43%
    18:00 +15°C° 0 mm 7 mps 756 mmHg 47%
    19:00 +13°C° 0 mm 6 mps 756 mmHg 50%
    20:00 +11°C° 0 mm 6 mps 755 mmHg 54%
    21:00 +10°C° 0 mm 6 mps 756 mmHg 54%
    22:00 +10°C° 0 mm 6 mps 756 mmHg 55%
    23:00 +10°C° 0 mm 6 mps 756 mmHg 55%

    Day after tomorrow, 24 April, Wednesday

    Time Temperature Precipitation Wind Pressure Humidity
    00:00 +9°C° 0 mm 6 mps 756 mmHg 56%
    01:00 +9°C° 0 mm 6 mps 755 mmHg 58%
    02:00 +9°C° 0 mm 6 mps 755 mmHg 59%
    03:00 +8°C° 0 mm 7 mps 755 mmHg 60%
    04:00 +8°C° 0 mm 7 mps 755 mmHg 60%
    05:00 +8°C° 0 mm 7 mps 755 mmHg 61%
    06:00 +9°C° 0 mm 8 mps 755 mmHg 59%
    07:00 +9°C° 0 mm 8 mps 755 mmHg 58%
    08:00 +10°C° 0 mm 9 mps 755 mmHg 56%
    09:00 +11°C° 0 mm 9 mps 755 mmHg 53%
    10:00 +13°C° 0 mm 9 mps 755 mmHg 50%
    11:00 +15°C° 0 mm 9 mps 755 mmHg 47%
    12:00 +16°C° 0 mm 9 mps 755 mmHg 46%
    13:00 +17°C° 0 mm 9 mps 755 mmHg 46%
    14:00 +18°C° 0 mm 9 mps 755 mmHg 45%
    15:00 +18°C° 0 mm 8 mps 755 mmHg 47%
    16:00 +18°C° 0 mm 8 mps 754 mmHg 48%
    17:00 +18°C° 0 mm 8 mps 754 mmHg 50%
    18:00 +16°C° 0 mm 7 mps 754 mmHg 53%
    19:00 +15°C° 0 mm 6 mps 754 mmHg 57%
    20:00 +14°C° 0 mm 5 mps 754 mmHg 60%
    21:00 +13°C° 0 mm 5 mps 755 mmHg 61%
    22:00 +13°C° 0 mm 5 mps 755 mmHg 61%
    23:00 +11°C° 0 mm 6 mps 755 mmHg 62%

    25 April, Thursday

    Time Temperature Precipitation Wind Pressure Humidity
    00:00 +12°C° 0 mm 5 mps 755 mmHg 64%
    01:00 +12°C° 0 mm 5 mps 755 mmHg 66%
    02:00 +10°C° 0 mm 5 mps 755 mmHg 67%
    03:00 +10°C° 0 mm 5 mps 755 mmHg 69%
    04:00 +10°C° 0 mm 5 mps 754 mmHg 70%
    05:00 +9°C° 0 mm 5 mps 754 mmHg 71%
    06:00 +10°C° 0 mm 6 mps 754 mmHg 70%
    07:00 +11°C° 0 mm 6 mps 754 mmHg 69%
    08:00 +13°C° 0 mm 6 mps 754 mmHg 68%
    09:00 +15°C° 0 mm 7 mps 754 mmHg 64%
    10:00 +16°C° 0 mm 7 mps 754 mmHg 60%
    11:00 +18°C° 0 mm 7 mps 754 mmHg 56%
    12:00 +20°C° 0 mm 7 mps 754 mmHg 53%
    13:00 +20°C° 0 mm 7 mps 754 mmHg 50%
    14:00 +21°C° 0 mm 7 mps 753 mmHg 47%
    15:00 +21°C° 0 mm 7 mps 753 mmHg 48%
    16:00 +21°C° 0 mm 7 mps 753 mmHg 49%
    17:00 +21°C° 0 mm 7 mps 752 mmHg 50%
    18:00 +19°C° 0 mm 6 mps 752 mmHg 54%
    19:00 +17°C° 0 mm 5 mps 752 mmHg 59%
    20:00 +15°C° 0 mm 5 mps 752 mmHg 63%
    21:00 +15°C° 0.1 mm 5 mps 752 mmHg 65%
    22:00 +14°C° 0.1 mm 5 mps 752 mmHg 67%
    23:00 +14°C° 0.1 mm 5 mps 751 mmHg 69%

    26 April, Friday

    Time Temperature Precipitation Wind Pressure Humidity
    00:00 +13°C° 0.1 mm 5 mps 751 mmHg 72%
    01:00 +13°C° 0.1 mm 5 mps 751 mmHg 75%
    02:00 +12°C° 0.1 mm 5 mps 751 mmHg 77%
    03:00 +12°C° 0.3 mm 4 mps 750 mmHg 80%
    04:00 +11°C° 0.3 mm 4 mps 750 mmHg 82%
    05:00 +11°C° 0.3 mm 4 mps 750 mmHg 84%
    06:00 +12°C° 0.1 mm 4 mps 750 mmHg 82%
    07:00 +13°C° 0.1 mm 5 mps 749 mmHg 80%
    08:00 +13°C° 0.1 mm 5 mps 749 mmHg 78%
    09:00 +16°C° 0 mm 5 mps 749 mmHg 72%
    10:00 +19°C° 0 mm 5 mps 749 mmHg 67%
    11:00 +21°C° 0 mm 5 mps 749 mmHg 61%
    12:00 +22°C° 0 mm 5 mps 749 mmHg 58%
    13:00 +24°C° 0 mm 6 mps 748 mmHg 54%
    14:00 +26°C° 0 mm 6 mps 748 mmHg 50%
    15:00 +26°C° 0 mm 5 mps 748 mmHg 51%
    16:00 +26°C° 0 mm 5 mps 748 mmHg 52%
    17:00 +26°C° 0 mm 5 mps 747 mmHg 53%
    18:00 +23°C° 0 mm 5 mps 747 mmHg 58%
    19:00 +21°C° 0 mm 4 mps 747 mmHg 63%
    20:00 +19°C° 0 mm 4 mps 747 mmHg 69%
    21:00 +18°C° 0.3 mm 4 mps 747 mmHg 71%
    22:00 +17°C° 0.3 mm 4 mps 748 mmHg 74%
    23:00 +16°C° 0.3 mm 3 mps 748 mmHg 76%

    27 April, Saturday

    Time Temperature Precipitation Wind Pressure Humidity
    00:00 +16°C° 0.1 mm 3 mps 748 mmHg 77%
    01:00 +14°C° 0.1 mm 3 mps 748 mmHg 78%
    02:00 +14°C° 0.1 mm 3 mps 747 mmHg 79%
    03:00 +14°C° 0 mm 3 mps 747 mmHg 79%
    04:00 +13°C° 0 mm 3 mps 747 mmHg 79%
    05:00 +13°C° 0 mm 3 mps 747 mmHg 78%
    06:00 +14°C° 0 mm 3 mps 748 mmHg 77%
    07:00 +14°C° 0 mm 3 mps 748 mmHg 75%
    08:00 +16°C° 0 mm 3 mps 748 mmHg 74%
    09:00 +17°C° 0.5 mm 3 mps 748 mmHg 71%
    10:00 +19°C° 0.5 mm 3 mps 748 mmHg 68%
    11:00 +20°C° 0.5 mm 3 mps 749 mmHg 66%
    12:00 +21°C° 0.1 mm 2 mps 749 mmHg 62%
    13:00 +23°C° 0.1 mm 2 mps 749 mmHg 59%
    14:00 +24°C° 0.1 mm 2 mps 749 mmHg 56%
    15:00 +24°C° 1.3 mm 2 mps 749 mmHg 62%
    16:00 +22°C° 1.3 mm 3 mps 749 mmHg 67%
    17:00 +21°C° 1.3 mm 3 mps 749 mmHg 73%
    18:00 +20°C° 0.1 mm 3 mps 749 mmHg 79%
    19:00 +19°C° 0.1 mm 3 mps 749 mmHg 85%
    20:00 +17°C° 0.1 mm 3 mps 749 mmHg 91%
    21:00 +17°C° 0.7 mm 3 mps 750 mmHg 92%
    22:00 +16°C° 0.7 mm 3 mps 750 mmHg 93%
    23:00 +16°C° 0.7 mm 3 mps 750 mmHg 94%
    Show more